Temp
25 24 23 23 24 25 26 27 27 27 28 28 28 26 26 25 25 29 31 32 33 30 29 30 30 30 30 31 32 32 31 31 31 31 31 31 28 26 25 25 24 24 24 24 24 23 22 22 21 19 20 19 18 18 18 19 17 16 17 18 18 18 18 18 18 19 19 19 20 20 21 21 21 21 21 21 20 20 20 20 19 19 19 18 18 18
25 23 23 25 26 27 27 27 27 27 28 28 27 25 26 26 26 30 32 32 32 29 28 30 30 30 31 31 32 32 31 30 31 31 30 31 31 29 26 25 25 24 24 24 23 20 20 22 20 18 19 19 17 18 18 18 17 16 16 17 18 18 18 18 19 19 19 20 20 21 21 21 21 21 21 20 20 19 19 19 19 19 19 18 18 18
23 23 24 26 27 27 27 28 27 27 27 27 26 25 24 27 28 30 32 33 32 29 28 30 29 29 31 31 32 32 31 30 31 31 31 31 31 30 28 25 25 24 24 22 19 17 19 22 21 18 19 18 18 18 18 18 17 17 16 17 18 18 18 18 19 19 20 20 21 21 21 21 21 21 21 20 20 19 19 19 19 18 19 19 19 18
22 23 26 27 27 27 27 27 27 26 27 26 26 24 23 27 27 25 29 32 31 29 29 30 29 29 31 31 31 32 32 31 31 30 31 31 31 31 28 26 25 25 23 20 18 18 19 22 21 19 19 18 18 18 19 18 17 17 16 17 18 17 17 18 19 19 20 20 21 21 21 21 21 21 20 20 20 20 19 19 19 18 19 19 19 19
24 26 28 27 27 27 27 26 26 25 25 25 26 25 24 27 28 26 28 30 30 28 29 29 26 26 29 30 31 32 32 32 31 30 31 31 31 30 27 26 25 22 20 18 19 19 20 22 20 19 19 18 18 19 18 17 16 17 17 17 17 17 17 18 19 19 20 20 20 20 20 20 20 20 20 20 20 20 20 19 19 19 19 19 19 19
26 28 28 27 27 28 26 25 26 25 23 24 25 26 26 27 28 29 29 28 25 24 27 27 22 22 27 29 30 31 31 32 30 30 30 30 31 28 25 25 23 18 17 19 20 19 20 21 20 19 19 19 19 18 17 16 16 17 17 17 17 18 18 18 19 20 20 20 19 20 20 20 20 20 20 20 20 20 20 19 19 19 19 19 19 19
27 28 28 28 27 27 26 25 26 26 23 22 25 28 28 28 27 28 28 26 22 22 27 28 22 21 25 27 29 30 31 31 29 30 30 30 31 27 24 25 20 17 19 19 20 19 20 20 18 17 18 19 19 18 17 16 17 17 17 17 18 18 19 19 20 20 20 20 19 19 20 20 20 20 20 20 20 20 20 19 19 19 19 19 19 18
27 27 27 27 27 26 25 25 26 27 24 23 27 29 28 28 27 27 27 25 24 24 26 27 25 22 22 25 30 30 30 30 29 29 29 30 30 25 23 24 20 18 20 19 19 19 20 19 16 15 17 18 18 17 17 16 17 17 17 18 19 19 19 19 20 20 20 20 20 19 20 20 20 20 20 20 20 20 19 19 19 19 19 19 19 19
28 27 26 27 26 25 25 26 27 27 25 25 28 29 29 29 28 28 27 25 25 24 22 24 25 22 21 25 30 31 29 28 29 29 28 29 28 23 21 23 20 19 20 20 20 20 19 17 15 15 16 16 17 17 16 16 17 18 18 19 19 19 19 20 20 20 21 21 20 20 20 20 20 20 20 20 19 19 19 19 19 19 19 19 19 19
28 27 27 27 26 25 26 27 28 27 26 27 28 28 29 29 29 28 27 25 24 23 21 23 24 22 21 24 27 28 27 27 28 29 29 29 27 22 21 22 21 21 21 21 21 19 16 15 15 16 16 16 17 17 16 16 17 19 19 19 20 19 19 19 19 20 21 21 20 19 20 20 20 20 20 20 19 19 19 19 19 19 19 18 18 18
28 28 28 28 27 27 27 28 28 28 28 28 28 28 28 28 28 28 26 25 23 21 21 23 24 22 21 23 26 27 27 28 29 28 29 29 26 24 24 24 23 22 22 22 19 16 15 15 16 15 15 16 16 17 17 17 18 19 20 19 19 19 19 19 19 20 20 20 19 19 20 20 20 20 20 19 19 19 19 19 19 19 18 18 18 18
27 27 27 28 28 28 28 28 29 29 29 28 28 27 25 24 25 24 24 23 22 21 22 23 25 23 21 22 26 28 29 30 29 29 29 27 25 25 25 25 23 22 22 21 17 15 15 15 15 15 15 16 16 16 16 16 18 19 20 19 20 20 19 19 19 19 19 19 19 19 20 20 20 20 20 19 19 19 19 19 19 19 18 18 18 17
26 27 27 27 28 28 28 27 27 28 28 28 27 24 22 22 22 21 21 22 21 21 23 24 25 23 22 24 27 28 29 29 29 29 28 26 24 24 25 24 22 21 21 19 17 16 16 15 15 15 16 16 17 16 16 17 18 19 19 20 20 20 19 19 19 19 19 19 19 19 20 20 20 19 19 19 19 19 19 19 19 19 18 18 18 17
23 26 27 27 27 28 27 25 24 25 26 26 25 23 21 21 21 21 21 21 21 21 23 25 24 22 22 24 28 28 27 28 29 27 27 27 26 24 24 24 23 22 20 18 17 16 16 16 16 15 15 16 16 16 16 17 17 18 18 18 19 19 19 20 20 19 19 19 19 19 19 19 19 19 19 19 19 19 19 19 19 19 19 18 18 17
21 22 25 26 26 27 27 26 26 26 26 26 27 25 23 21 21 21 21 21 21 21 22 24 23 21 21 23 27 28 27 27 27 27 26 26 26 25 24 24 23 21 19 18 17 17 17 17 16 15 15 16 16 16 16 16 16 16 16 17 19 19 19 19 19 19 19 19 19 19 19 19 19 19 19 19 19 19 19 19 19 19 19 18 18 17
21 22 26 27 27 28 27 27 28 28 26 27 29 26 23 23 23 21 21 21 21 21 21 22 22 22 23 24 26 27 27 27 26 26 26 25 25 25 24 24 22 19 18 17 17 16 16 16 16 16 16 16 16 16 16 16 16 16 16 17 18 18 17 18 18 18 19 19 19 19 19 19 19 19 19 19 19 19 19 19 19 19 19 18 18 17
21 22 27 28 27 28 28 28 29 27 24 25 26 24 25 28 26 21 21 22 21 21 21 22 21 22 23 24 26 26 26 26 26 26 25 24 24 24 24 22 19 17 17 16 16 15 15 16 16 17 16 16 16 16 16 16 16 17 17 17 17 17 17 17 17 18 18 19 19 19 19 19 19 19 19 19 19 19 19 19 19 19 18 18 17 17
22 22 26 28 26 28 29 28 29 29 27 24 23 25 27 29 26 23 21 21 21 21 21 21 21 21 21 22 24 25 25 25 25 23 22 23 22 22 22 20 18 17 16 15 15 15 15 16 16 16 16 16 17 17 17 17 17 17 17 17 17 17 17 17 17 18 18 19 19 19 19 19 19 19 19 19 19 19 19 19 19 19 18 18 17 17
24 21 24 26 26 28 29 28 26 28 29 27 26 27 26 23 22 23 21 21 21 21 21 21 21 21 21 22 23 24 25 24 22 21 21 22 21 20 19 18 17 17 16 15 16 16 16 17 16 15 16 16 17 17 17 17 17 17 17 17 17 17 17 17 17 18 18 18 18 18 19 19 19 19 19 19 19 19 19 19 19 18 18 18 17 17
24 21 21 25 27 28 28 26 24 25 28 29 27 28 26 23 22 22 21 21 21 21 21 21 21 21 21 23 24 23 22 21 20 20 19 19 19 18 18 17 16 16 16 16 17 17 17 17 17 17 16 16 16 16 16 17 17 18 17 17 17 17 17 17 18 18 18 18 18 18 18 19 19 19 19 19 19 18 19 19 18 18 18 18 17 17
24 22 21 23 26 25 25 25 25 24 26 26 25 24 25 24 24 23 22 22 22 21 21 21 21 20 21 23 24 22 20 20 19 19 18 18 18 17 17 16 16 16 17 17 18 18 18 17 18 17 17 17 16 15 15 16 17 18 18 18 18 18 18 18 18 18 18 18 18 18 18 18 19 19 19 19 18 18 18 18 18 18 18 18 18 17
24 22 21 22 23 22 23 26 27 27 27 26 25 24 24 24 23 22 21 22 22 21 21 21 20 20 21 22 23 22 22 21 20 18 17 17 17 17 16 16 16 18 18 19 19 19 18 18 19 18 18 17 16 15 15 16 17 18 18 18 18 18 18 18 18 18 18 18 18 18 18 18 18 19 19 19 18 18 18 18 18 18 18 18 18 18
23 23 21 21 22 23 25 27 27 27 28 28 27 26 26 25 23 21 20 21 21 22 22 21 20 20 21 22 23 23 23 23 21 19 19 18 17 17 17 17 17 18 19 20 20 20 19 20 19 19 18 18 17 17 17 18 18 18 18 18 18 18 18 18 18 18 18 18 18 18 18 18 18 18 19 19 18 18 18 18 18 17 17 18 18 18
23 23 21 21 22 23 25 26 26 27 28 26 27 27 26 26 25 24 22 21 21 21 21 21 20 20 21 23 23 22 23 23 22 21 21 20 19 18 19 18 17 18 19 20 20 20 20 20 20 20 19 18 18 18 18 18 18 18 17 17 17 18 18 18 17 18 18 18 18 18 18 18 18 18 18 18 18 18 18 17 17 17 18 18 18 18
22 22 21 20 20 20 22 22 22 23 24 24 25 27 27 26 26 25 23 22 21 21 21 21 20 20 21 22 22 22 22 22 22 22 21 21 20 20 20 18 17 18 20 20 20 20 20 20 20 21 20 19 18 18 18 18 17 17 16 16 17 17 16 16 16 16 17 18 18 18 18 18 18 18 18 18 18 18 18 18 18 17 18 18 18 18
22 21 21 20 19 19 20 20 19 19 21 22 23 25 26 26 26 24 22 21 21 21 21 21 20 20 21 21 20 20 21 20 20 21 19 19 20 20 19 18 17 18 19 19 19 19 19 18 18 19 19 19 18 17 17 17 17 17 16 15 16 16 16 16 16 15 14 15 17 18 18 18 18 18 18 18 18 18 17 17 18 18 18 18 18 18
22 21 21 21 20 20 19 19 20 20 20 21 22 23 23 24 26 24 21 20 21 21 20 20 20 20 20 20 18 18 18 17 17 18 18 17 17 17 18 18 18 19 18 18 18 17 17 16 15 16 17 17 17 17 17 17 17 17 17 16 16 16 16 16 16 15 13 13 15 17 17 17 17 17 17 17 17 17 17 17 18 18 18 18 18 18
21 21 21 21 21 21 21 20 21 21 20 21 21 21 21 21 22 22 22 21 22 21 19 19 20 20 19 19 18 17 17 16 16 16 16 16 15 16 18 19 19 19 19 19 19 18 18 17 16 16 16 16 15 16 16 16 15 16 17 16 16 16 16 16 16 15 14 14 14 15 15 15 15 15 16 16 17 17 17 17 18 18 18 18 19 18
21 21 21 21 21 22 22 21 21 20 21 21 20 21 22 20 18 19 21 22 23 21 20 19 19 18 18 18 18 17 17 17 16 16 15 16 16 16 18 19 19 19 19 19 19 19 19 18 17 16 17 16 16 15 15 15 15 15 15 15 16 15 15 16 15 15 16 16 16 15 15 15 15 15 16 16 16 16 17 17 17 18 18 18 18 18
22 21 21 21 21 21 22 21 21 20 20 20 20 20 21 20 18 18 18 20 21 21 20 19 18 18 18 17 17 17 17 16 15 15 14 15 15 16 18 19 18 18 18 18 18 18 19 18 18 17 17 16 16 16 15 15 16 16 15 15 16 15 15 15 15 16 17 17 16 16 15 15 15 16 16 16 16 16 16 16 17 17 17 17 17 17
21 20 20 20 20 21 21 21 21 20 19 19 20 20 20 19 19 18 16 16 17 19 20 19 17 16 17 17 16 16 16 15 13 12 12 13 14 15 16 17 17 17 16 16 16 16 17 17 18 18 18 18 17 17 16 17 17 17 17 17 17 17 17 17 16 17 17 17 17 16 15 15 15 16 16 16 16 16 16 16 16 16 16 16 16 17
20 20 19 19 19 20 21 20 20 20 19 19 19 19 19 18 17 18 17 16 16 17 18 17 16 15 16 15 14 13 14 14 12 11 11 11 12 12 12 12 13 13 13 13 13 13 13 13 13 14 15 16 17 18 18 18 18 18 18 18 18 18 17 17 17 17 17 17 17 17 17 16 16 16 16 16 16 16 16 16 15 15 15 15 16 16
17 19 19 19 19 19 20 20 20 19 18 17 17 18 19 18 17 18 17 17 17 16 16 16 16 15 15 13 12 12 12 12 12 11 11 11 10 10 11 11 11 11 11 11 11 10 11 11 11 11 11 12 13 14 15 16 17 18 18 18 19 18 18 17 17 17 18 17 17 17 17 17 17 17 16 16 16 16 16 16 15 15 15 15 15 16
16 16 16 17 18 18 18 19 19 18 16 15 16 18 19 19 18 17 16 17 17 16 16 16 16 15 14 13 11 11 10 10 10 10 11 11 10 10 10 11 11 11 10 10 9 9 9 10 10 10 10 10 11 11 12 12 14 16 18 18 19 19 18 18 18 18 18 18 18 18 18 18 18 17 17 17 17 16 16 16 15 15 15 15 15 15
16 16 15 16 17 16 16 18 17 16 15 15 16 18 19 18 17 16 16 17 18 17 16 16 16 15 13 12 11 10 9 9 8 8 9 9 9 9 9 9 10 10 10 9 9 9 9 8 9 9 9 9 10 10 11 11 11 13 15 16 17 18 18 18 18 18 18 18 18 18 18 18 18 18 18 17 17 17 17 16 15 15 15 15 15 15
17 17 17 17 17 16 16 17 15 14 15 15 16 17 18 17 17 16 15 16 17 17 17 16 15 13 12 10 10 9 9 8 8 7 7 7 8 8 8 8 8 8 8 9 8 8 8 8 8 8 8 9 10 10 10 10 11 12 13 13 14 16 17 17 17 17 17 17 17 17 17 18 18 18 18 18 18 18 17 17 16 16 15 15 15 15
18 17 16 17 17 16 16 16 15 14 14 15 15 16 16 16 16 16 15 15 16 16 15 15 13 12 11 10 10 10 10 10 9 8 8 8 8 8 8 8 8 8 8 8 8 8 8 8 8 8 9 9 10 10 10 10 11 11 12 12 12 13 15 15 14 15 16 16 16 16 16 17 17 17 17 17 17 17 17 17 17 17 16 16 15 15
19 17 15 15 15 15 15 15 14 14 13 13 14 15 15 16 16 17 16 15 15 15 14 14 12 11 11 11 11 12 12 11 10 9 10 9 9 8 8 8 9 9 9 8 8 8 8 8 9 9 9 9 9 9 10 10 10 11 11 11 11 12 13 13 13 13 14 15 15 15 15 16 16 16 16 16 16 16 17 17 17 17 17 17 16 16
19 17 16 16 16 15 14 14 14 13 12 12 13 14 14 15 15 16 15 14 14 15 14 13 12 12 11 11 12 13 13 11 10 11 11 11 10 9 9 9 8 8 9 9 9 10 9 9 10 10 10 10 10 10 10 10 10 11 11 11 11 12 13 12 12 13 13 14 14 14 15 15 15 15 15 15 15 15 15 16 16 16 17 17 17 17
19 18 17 16 16 15 15 14 13 12 11 12 13 14 13 13 14 15 14 13 14 15 15 14 13 12 12 12 13 14 13 12 12 12 13 13 12 12 12 11 10 10 10 11 11 11 11 11 11 11 11 11 11 11 11 11 11 11 11 11 12 12 12 12 12 13 13 13 13 13 14 15 15 15 14 14 14 14 15 15 15 16 16 16 17 17
17 17 17 17 17 16 15 14 12 11 11 12 13 14 14 14 14 13 13 14 15 15 15 14 13 13 13 13 13 14 14 14 13 13 13 13 13 13 13 13 12 12 12 11 11 11 12 12 11 11 11 11 11 11 11 10 10 11 11 11 11 12 11 11 11 12 12 12 12 13 13 14 14 14 14 14 14 14 14 14 15 15 15 16 16 16
16 16 16 16 16 16 15 13 11 10 11 12 13 14 14 13 12 12 14 15 16 16 14 13 12 12 13 13 13 13 13 14 14 13 13 13 12 12 12 12 12 12 11 11 10 10 11 12 11 11 10 10 10 10 10 10 10 10 10 10 10 10 10 10 10 10 11 11 11 12 12 12 12 13 13 13 13 13 14 14 14 14 15 15 15 16
15 14 15 13 13 15 15 13 11 10 11 13 14 14 13 13 12 13 15 15 15 15 15 14 13 13 12 12 12 12 13 13 13 12 12 12 12 12 12 11 11 11 11 11 10 10 10 11 11 10 10 10 9 9 9 9 9 9 9 9 9 9 9 9 9 9 10 10 10 10 11 11 11 12 12 12 13 13 13 13 14 14 14 14 15 15
14 14 14 13 13 14 13 11 10 11 12 14 14 12 12 13 13 13 13 13 13 13 14 13 13 13 13 12 12 12 12 12 11 11 11 11 11 11 11 10 10 10 10 10 10 9 10 10 10 10 10 9 9 9 9 9 9 9 8 9 9 9 9 9 9 9 9 9 9 9 10 10 10 11 11 12 12 12 13 13 13 14 14 14 14 15
14 14 14 13 13 13 12 11 12 12 13 14 14 12 12 12 12 12 12 11 12 12 12 11 11 12 12 12 12 11 11 11 11 11 10 10 10 10 10 10 10 9 9 9 9 9 9 9 9 9 9 9 9 9 9 9 9 9 9 9 9 9 9 9 9 9 9 9 9 9 9 9 9 10 10 11 11 11 12 12 13 13 14 14 14 14
15 15 15 13 12 13 12 12 12 12 12 13 13 12 11 11 11 11 11 10 11 11 11 11 11 11 12 12 11 11 11 11 11 11 10 10 10 10 10 10 9 9 9 9 8 8 9 9 9 9 9 8 8 8 8 8 8 8 8 8 8 8 8 8 8 8 8 8 8 8 8 9 9 9 9 9 10 10 11 11 12 12 13 13 14 14
15 15 15 13 12 12 11 11 12 12 11 12 12 11 11 11 11 11 10 10 10 10 10 11 11 11 11 12 11 11 11 11 10 10 10 10 10 10 10 10 10 9 9 9 8 8 9 9 9 8 8 8 8 8 8 8 8 8 8 8 8 8 8 8 8 7 7 7 7 7 8 8 8 9 9 9 9 9 10 10 11 12 12 13 13 14
14 15 14 13 13 12 11 11 12 11 11 12 12 11 11 11 10 10 10 10 10 10 10 11 11 10 11 11 11 10 10 10 10 10 10 10 10 10 10 10 10 10 9 9 9 9 9 9 8 8 8 8 8 7 7 8 8 8 8 7 7 7 7 7 7 7 7 7 7 7 7 7 8 8 8 8 9 9 9 10 10 11 11 12 12 12
14 14 14 13 12 11 11 11 12 11 11 11 11 11 11 11 10 10 10 10 10 10 10 10 10 10 10 10 10 10 10 9 10 10 10 10 10 10 10 10 10 10 10 9 9 9 8 8 7 7 8 8 7 7 8 8 7 7 7 7 6 6 6 6 6 6 6 6 6 6 6 7 7 7 7 7 8 8 8 9 9 9 10 11 11 11
13 13 13 13 11 11 11 11 11 11 10 10 11 11 11 11 11 10 10 11 10 10 10 9 9 9 10 10 10 10 10 9 9 10 10 9 9 9 9 9 10 10 9 9 9 8 8 8 7 7 7 7 7 7 7 7 7 7 6 6 5 5 5 5 5 5 5 5 6 6 6 6 6 6 6 6 6 6 7 7 7 8 8 9 9 10
12 12 12 12 11 11 11 11 12 11 10 10 11 12 11 12 11 11 11 11 11 10 10 10 9 9 9 10 10 10 9 9 9 9 9 9 9 9 9 9 9 9 9 9 9 8 8 8 8 7 7 7 7 7 7 7 7 7 6 5 5 4 4 4 4 5 5 5 5 5 5 5 5 5 5 5 5 5 6 6 6 6 7 8 9 9
Height
728 738 740 738 734 728 724 721 719 717 712 711 710 709 708 711 710 698 690 682 682 700 709 708 711 712 711 706 699 699 703 707 707 709 711 710 718 727 730 734 738 742 744 745 748 753 757 759 759 761 762 765 769 773 775 777 780 783 786 787 788 791 793 793 795 798 801 803 805 806 807 808 809 811 812 813 814 815 815 816 817 818 818 819 819 819
728 740 737 728 724 719 717 717 716 716 714 713 715 713 704 703 705 693 686 682 682 699 706 704 709 709 707 704 698 697 705 710 708 711 713 709 712 718 725 731 735 740 742 744 751 757 760 759 759 761 763 766 770 774 776 778 781 783 787 789 790 792 793 794 795 797 799 801 803 804 805 807 808 810 811 813 814 815 816 816 817 818 819 819 819 819
736 737 729 719 715 714 713 711 714 717 717 718 718 718 708 698 698 693 683 679 683 700 705 702 709 711 703 701 698 696 700 705 705 708 710 709 710 713 721 729 732 737 742 747 756 759 758 757 759 762 763 767 771 774 777 779 781 784 788 790 791 793 794 794 795 796 798 800 801 803 805 806 807 809 811 813 814 815 816 817 818 819 819 819 819 818
739 731 719 713 711 713 714 712 715 718 719 722 721 721 715 699 698 701 693 685 688 701 706 703 708 709 705 701 697 694 694 697 701 705 705 706 708 711 717 725 729 735 744 753 757 754 752 755 758 762 764 768 772 774 777 779 782 786 789 791 792 793 794 794 796 797 798 799 801 802 804 805 807 809 811 813 814 815 816 817 818 819 819 819 819 819
727 714 706 709 709 710 715 718 721 725 726 724 721 721 717 703 698 700 700 696 697 705 707 710 719 716 707 705 701 696 694 694 700 704 705 705 705 710 717 724 730 738 749 755 753 749 750 753 757 761 765 769 772 774 777 780 784 788 790 791 792 793 793 794 796 797 798 799 801 802 803 806 808 810 812 813 814 815 816 817 818 819 820 820 820 820
714 703 700 707 707 707 718 723 722 727 730 726 720 716 713 708 701 696 698 703 713 721 711 716 741 734 709 705 705 701 696 696 701 705 707 706 705 713 722 727 735 745 751 750 745 747 750 752 756 762 766 770 773 775 779 782 785 788 790 790 790 791 793 795 796 797 798 799 800 801 804 808 809 811 813 813 814 815 816 817 818 819 820 820 821 820
708 701 700 704 707 712 721 723 718 720 731 731 716 709 710 709 707 702 701 710 726 731 714 713 741 741 718 710 707 702 699 701 705 706 707 707 707 716 724 728 739 746 747 745 744 747 750 752 758 765 768 771 774 776 779 781 783 786 789 788 789 791 792 794 795 795 797 799 799 801 806 809 810 812 813 814 815 816 816 818 819 820 820 821 821 821
705 704 705 706 710 717 721 722 715 713 727 728 707 702 708 708 711 709 705 712 718 720 715 711 724 737 730 713 700 698 702 706 708 708 710 707 708 721 728 730 738 743 742 742 744 747 751 756 763 769 773 773 774 776 779 781 783 786 787 788 789 791 793 794 794 794 796 797 799 802 807 809 810 812 813 815 815 816 818 819 820 820 821 821 821 821
700 706 710 710 714 718 717 714 709 708 719 717 701 698 700 702 708 705 706 713 712 720 730 718 715 736 736 709 694 697 704 710 711 710 711 710 714 727 733 733 738 741 741 739 741 748 755 763 770 773 775 777 777 778 780 782 784 785 786 787 788 790 792 793 793 794 795 797 800 804 807 809 810 812 814 815 816 817 818 819 820 820 821 821 821 821
698 700 701 707 714 715 710 705 701 706 712 705 700 699 694 696 702 704 710 713 714 730 740 724 717 737 738 711 700 706 707 709 710 709 710 710 717 727 730 733 738 741 741 739 744 754 762 769 774 774 777 780 781 781 782 783 784 784 784 785 787 788 791 792 794 795 796 799 802 804 806 809 810 812 814 815 816 817 819 820 820 820 821 821 821 821
695 693 694 699 706 705 701 699 695 698 701 699 700 703 702 701 700 705 708 709 726 742 736 721 716 733 740 716 702 707 704 703 707 708 707 708 715 722 725 729 736 740 741 744 753 761 765 769 772 776 781 782 782 783 783 783 783 783 783 784 785 786 790 793 795 796 798 801 803 804 806 808 810 812 814 816 817 817 819 819 820 820 820 821 821 821
698 700 701 697 696 696 697 697 692 689 693 698 703 707 714 715 709 714 714 717 742 751 730 714 708 722 740 723 701 700 696 695 702 705 706 712 719 721 722 727 734 739 742 748 759 763 764 768 770 774 781 781 780 781 783 783 783 782 782 782 783 785 789 793 795 797 799 801 803 805 807 808 810 813 815 816 817 818 818 819 819 820 820 820 821 822
703 702 700 698 695 693 699 703 699 696 697 701 706 713 728 734 731 736 736 734 744 740 720 709 708 719 729 717 702 702 699 696 698 702 707 715 722 723 723 728 734 738 743 751 759 762 763 767 769 771 775 776 778 779 779 779 780 780 779 779 780 784 788 791 794 797 799 801 803 804 806 808 810 813 815 816 817 818 818 819 819 820 820 821 821 822
713 705 696 700 699 693 698 707 710 708 705 707 708 714 730 741 749 753 745 739 740 730 711 703 712 725 726 714 703 702 705 702 699 703 709 713 719 725 727 731 735 738 745 752 756 758 761 765 768 769 770 772 775 777 776 774 775 776 777 778 778 782 786 789 792 795 798 800 801 803 805 808 810 812 814 816 817 818 819 819 819 820 821 821 822 822
722 720 702 700 700 695 698 700 700 699 701 704 701 705 719 729 744 751 743 741 740 730 716 712 721 731 733 725 708 700 705 705 704 708 711 714 718 724 728 731 735 741 745 749 750 751 757 763 766 768 770 772 773 776 778 777 777 778 779 779 778 781 785 787 790 793 796 799 801 803 805 807 810 812 814 816 817 818 819 819 820 820 821 821 822 823
716 714 693 690 691 690 696 694 689 694 702 700 693 702 715 714 721 733 735 734 735 736 730 725 726 725 726 723 709 705 708 707 710 713 714 719 721 723 728 731 737 745 748 748 747 751 759 765 767 769 772 775 776 778 779 779 781 782 782 781 780 782 785 788 791 793 795 798 801 803 805 807 809 811 813 815 816 817 818 819 820 820 821 822 822 823
715 708 686 685 689 685 690 691 686 695 708 707 701 705 704 693 701 726 736 726 729 745 739 727 730 730 728 725 712 709 714 712 715 718 720 724 725 726 730 734 742 749 753 754 753 757 765 770 771 770 772 774 777 779 779 780 783 784 784 783 782 784 787 789 792 794 796 798 800 802 805 807 809 810 812 814 815 817 818 819 820 820 821 822 822 823
712 714 691 685 693 686 680 686 685 684 695 707 710 701 691 690 697 717 735 736 741 750 735 723 737 745 740 734 721 715 717 718 721 727 729 729 730 733 735 742 749 753 758 760 759 764 771 773 772 770 771 773 775 777 778 780 783 785 786 785 785 787 789 792 794 795 797 799 800 802 804 806 808 809 811 812 814 816 817 819 820 820 821 822 822 823
706 721 707 690 693 685 677 688 694 686 682 692 698 693 700 720 722 717 731 745 752 754 740 724 727 738 738 729 721 720 721 725 731 736 738 735 736 741 744 749 753 755 761 764 765 770 772 772 770 769 772 774 776 777 777 779 783 785 786 786 787 789 790 793 795 796 798 799 800 801 803 805 807 808 810 811 813 815 817 818 820 821 821 822 822 823
704 724 722 699 689 686 685 695 704 699 687 685 691 691 699 719 725 723 728 732 737 748 748 731 724 738 741 723 717 724 728 734 739 742 744 743 743 745 748 751 753 756 761 764 766 768 769 769 768 769 772 774 776 777 775 778 783 785 785 785 786 788 790 792 794 795 798 799 800 801 803 805 806 807 809 810 812 814 816 818 819 821 822 822 823 823
702 721 729 710 694 696 699 697 700 703 697 696 702 704 704 707 711 720 726 720 722 738 743 737 742 753 744 724 720 728 733 738 742 748 751 747 746 747 750 758 762 762 762 761 762 763 765 767 767 769 771 772 775 776 776 780 784 786 787 786 786 788 789 791 792 794 797 799 800 801 802 804 805 807 808 809 812 813 815 817 819 820 821 822 823 823
702 715 726 722 712 711 704 690 688 692 692 694 700 702 705 705 710 726 732 719 715 726 731 736 754 758 740 729 728 726 729 734 741 754 757 754 755 755 754 759 763 760 757 757 759 760 763 765 766 768 770 771 775 776 778 782 785 787 787 786 787 789 790 791 792 793 795 797 799 800 801 803 804 806 808 809 811 813 815 817 818 820 821 822 823 824
700 708 720 724 717 711 699 688 688 687 686 688 689 692 696 697 706 727 741 736 724 721 720 728 747 752 737 729 730 728 727 731 738 747 752 755 762 761 755 757 759 756 754 754 756 758 760 762 765 767 768 772 775 777 780 783 784 786 786 786 788 789 790 791 791 792 793 795 797 798 800 802 803 805 807 808 811 813 815 817 818 820 821 822 823 824
702 709 720 725 721 712 699 694 693 687 686 692 691 690 694 695 698 708 722 732 731 725 726 733 748 753 740 728 729 731 730 732 736 741 743 747 754 756 754 757 761 758 753 753 755 757 760 761 763 766 768 772 776 778 780 781 783 785 786 787 787 788 790 791 791 792 793 794 796 797 799 801 803 805 806 808 811 813 815 818 819 821 822 823 823 824
712 717 721 730 738 734 722 717 719 711 706 708 701 693 692 692 696 704 709 718 726 724 723 735 751 754 741 733 735 734 734 737 738 740 744 746 747 749 751 757 761 757 753 754 756 758 761 763 765 767 770 773 776 778 779 781 783 785 786 787 787 788 790 791 792 794 794 794 794 796 798 800 802 804 806 809 812 814 817 819 820 821 823 823 823 824
715 718 721 732 745 748 744 742 743 738 729 722 712 703 699 694 695 708 721 730 734 728 722 734 751 751 739 738 745 743 742 746 745 746 752 753 750 750 752 758 760 756 756 759 760 763 766 768 771 771 772 774 776 778 779 781 782 783 785 787 788 789 790 791 792 794 796 796 795 795 797 799 801 803 806 809 811 814 818 821 822 822 823 823 823 823
712 718 720 726 733 739 745 741 735 734 734 731 723 716 714 708 698 704 724 737 735 733 738 742 744 746 745 747 755 756 753 756 756 756 759 761 760 759 757 758 758 757 761 762 764 769 772 773 776 777 777 778 778 779 779 780 782 783 784 787 787 788 789 790 792 794 797 798 797 796 797 798 800 802 805 808 810 812 816 819 821 821 821 822 822 823
717 724 721 722 724 725 731 732 730 732 734 734 731 725 722 723 718 713 718 724 723 731 749 750 741 748 756 754 758 762 760 762 762 762 765 768 768 766 760 756 759 760 762 763 765 769 772 775 779 781 782 782 784 784 782 783 785 785 785 786 786 787 789 790 792 795 796 797 797 798 798 799 801 802 804 807 809 810 811 814 817 819 820 821 821 821
717 723 718 722 725 720 720 726 730 732 733 734 735 731 725 730 737 734 724 717 717 728 745 749 748 755 759 756 758 760 760 763 764 766 772 773 770 766 761 759 762 764 765 767 768 770 772 775 779 781 782 784 786 787 785 786 788 788 788 789 788 789 790 790 792 794 794 794 796 798 799 800 801 802 804 806 808 809 810 811 814 816 818 819 819 819
714 720 717 719 724 721 720 725 728 732 736 736 737 735 732 735 742 745 740 730 725 729 735 743 751 757 758 759 762 761 760 765 769 772 777 778 775 770 765 764 767 769 771 773 773 774 775 776 778 781 782 783 785 786 786 787 788 788 789 790 790 791 792 792 794 793 793 794 795 797 799 801 802 803 804 806 808 809 810 812 814 815 816 816 816 817
717 724 722 721 726 724 722 725 729 733 737 739 738 737 737 742 745 749 754 754 749 743 739 745 758 764 762 762 766 767 766 769 776 781 782 782 782 778 773 772 774 776 778 779 780 780 780 781 782 783 783 785 786 786 787 788 789 789 790 790 790 791 792 793 795 795 796 796 797 798 800 802 804 805 806 807 808 810 811 813 814 815 816 816 816 817
723 725 726 729 735 732 725 728 732 733 737 742 743 741 742 750 754 753 756 761 761 755 749 753 764 769 767 768 774 776 775 775 780 785 786 787 788 788 786 786 787 788 789 789 789 789 789 790 791 791 790 789 789 789 789 790 790 791 790 791 791 792 794 796 797 798 798 799 800 801 802 803 805 806 807 807 808 809 811 813 814 815 816 816 816 817
736 732 732 732 737 735 728 729 733 736 745 753 750 745 744 750 754 755 755 757 758 759 759 760 764 768 770 774 780 784 785 785 786 788 790 793 794 794 794 793 794 795 796 796 796 796 797 798 798 799 798 797 796 795 794 793 793 793 793 793 793 794 796 798 799 801 801 801 803 803 803 804 805 806 807 807 808 809 810 812 813 814 815 816 816 817
743 744 747 742 740 742 736 732 737 747 758 762 755 744 741 744 751 758 761 759 757 761 762 760 762 768 773 778 785 790 793 795 795 794 794 795 797 798 798 798 799 799 799 801 801 801 803 803 804 804 803 802 801 799 798 798 797 797 797 797 797 797 798 800 802 803 803 804 805 804 804 805 805 806 807 808 809 810 810 812 813 814 814 814 815 815
741 744 750 748 745 750 748 743 752 762 762 760 754 744 740 745 751 758 763 760 757 760 762 762 766 772 778 785 790 793 798 801 802 802 801 799 800 801 803 804 804 803 803 804 805 806 807 807 808 808 806 806 805 804 804 803 802 801 801 801 802 801 801 803 804 805 806 806 807 806 806 806 806 807 807 808 809 810 810 811 812 813 813 813 813 814
737 741 744 741 743 751 752 750 761 767 761 758 756 750 747 751 754 759 766 765 760 759 761 765 771 778 784 791 794 795 799 800 802 806 807 806 805 805 807 808 808 808 808 809 810 811 811 811 812 812 812 810 809 808 809 809 808 806 805 805 805 804 805 806 807 808 809 809 810 810 809 808 808 808 808 809 809 810 810 810 810 811 812 812 812 812
731 741 744 744 747 752 751 752 759 764 765 764 762 758 757 759 759 760 767 768 765 764 767 771 778 785 790 793 795 794 794 794 800 807 809 808 808 808 809 810 811 811 812 812 814 815 815 816 816 817 817 815 813 814 814 814 813 812 810 809 809 808 809 810 811 812 813 813 814 814 812 810 809 809 809 809 809 809 809 809 810 810 810 811 811 811
727 739 746 750 754 755 757 761 763 766 772 773 770 765 762 762 759 757 763 771 770 769 773 777 782 788 791 793 794 791 789 793 802 807 807 808 809 809 810 812 812 813 814 815 816 817 818 820 820 820 820 819 818 817 817 818 818 816 815 814 813 813 813 814 815 815 816 817 817 816 814 813 811 811 810 810 810 809 809 809 809 809 809 810 810 810
727 735 742 747 751 756 763 769 770 774 782 781 775 772 768 766 763 759 766 777 776 772 774 779 784 789 791 792 791 788 789 797 804 805 805 806 808 808 810 813 814 815 816 816 817 819 820 821 821 821 821 821 820 819 819 820 820 819 817 817 816 816 816 817 818 819 819 820 819 818 816 815 814 813 813 812 811 811 810 810 809 809 809 809 809 809
730 735 741 744 749 753 758 765 771 779 784 780 774 773 773 772 768 767 775 782 777 773 775 778 783 787 788 789 790 787 788 794 799 801 802 804 806 808 810 812 814 816 817 818 819 819 820 821 822 822 822 822 822 821 821 821 820 820 819 819 819 819 819 819 820 820 820 820 820 819 818 816 816 815 815 814 813 812 811 810 810 809 809 808 808 808
738 739 740 742 745 750 756 766 777 784 785 780 775 774 774 772 773 777 781 778 772 773 777 782 786 788 787 789 790 788 789 791 794 799 802 805 808 810 811 813 814 816 818 820 821 821 821 821 822 823 823 823 823 823 823 823 822 822 821 821 821 821 821 821 821 821 821 821 820 819 818 817 817 816 815 815 813 812 811 811 810 809 808 807 807 807
748 748 746 747 750 750 753 767 783 790 789 782 776 773 771 775 783 785 779 772 770 774 780 786 791 792 792 793 793 792 793 795 797 801 804 807 810 812 813 815 816 818 819 821 822 822 822 822 823 824 824 824 824 824 824 824 823 823 823 823 823 823 822 822 822 821 821 821 820 819 818 817 817 816 815 814 813 812 811 810 809 809 808 807 807 806
755 757 757 762 764 755 753 768 786 795 790 779 774 775 776 779 785 783 776 774 776 778 781 786 791 794 796 798 799 799 799 801 803 806 808 811 813 815 816 817 818 820 820 820 822 823 822 822 823 824 824 825 825 825 825 825 825 825 825 825 824 824 824 823 822 822 821 820 820 819 818 817 816 815 814 813 812 810 809 808 808 808 807 806 805 805
758 760 762 769 769 763 769 783 792 792 786 778 777 782 784 784 784 782 780 783 786 786 787 790 793 795 797 800 803 805 806 807 810 812 813 815 817 817 818 820 820 821 821 822 822 823 822 823 823 824 824 825 825 825 825 825 826 826 826 825 825 824 824 823 822 822 820 819 819 818 817 816 815 814 812 811 810 809 808 807 806 805 805 805 804 803
763 764 766 771 771 770 778 787 788 785 783 780 781 785 788 789 788 787 789 792 793 794 795 798 800 801 801 803 806 808 809 811 813 814 816 817 818 819 820 821 821 822 822 823 824 824 824 824 824 825 826 826 826 826 826 826 826 826 826 825 825 824 823 822 822 821 820 819 818 817 816 815 814 813 812 811 810 808 807 806 805 804 803 802 802 801
763 762 763 771 776 776 780 784 785 785 786 785 787 790 793 793 793 793 796 798 799 800 802 803 806 806 806 807 809 811 813 814 814 816 817 818 819 820 821 822 823 823 823 824 825 826 825 825 826 826 827 827 827 827 827 827 827 827 826 826 825 824 823 823 822 821 820 819 818 817 816 815 813 812 811 810 809 808 806 805 804 802 801 801 800 799
763 762 764 772 776 780 786 789 788 790 792 792 792 794 795 797 798 799 801 803 804 805 806 807 809 810 809 810 812 814 815 815 816 817 818 818 819 820 821 822 823 823 824 825 826 826 825 826 827 828 828 828 828 828 829 828 828 827 827 826 825 824 824 823 822 821 820 819 818 817 816 814 813 812 810 809 808 807 806 804 803 802 801 800 799 798
767 764 767 773 777 780 786 790 790 792 794 794 794 796 798 800 803 803 804 806 807 808 809 810 811 813 813 813 814 815 817 817 817 818 818 818 820 821 821 822 823 823 824 825 826 826 826 827 829 829 829 829 829 829 829 828 828 828 827 826 825 824 823 823 822 821 820 819 818 817 815 814 813 811 810 809 807 806 805 804 803 801 800 799 798 797
768 767 769 775 783 786 788 790 791 793 795 795 796 799 800 802 803 804 806 807 808 810 812 813 814 815 816 816 816 816 818 819 819 818 818 819 820 822 822 823 823 823 824 825 826 827 828 829 830 830 829 829 830 829 829 828 828 828 827 826 826 825 824 823 822 821 820 819 818 817 815 814 813 811 810 808 807 806 804 803 802 801 799 798 797 796
773 776 774 776 785 790 790 790 791 794 798 800 799 801 802 803 803 805 806 806 808 810 812 814 816 817 817 817 817 817 818 819 820 820 820 821 822 823 823 823 823 823 824 825 826 827 828 829 830 829 829 830 829 829 828 828 828 828 827 827 826 825 824 823 822 821 820 819 818 817 816 814 813 812 811 809 807 805 803 801 800 799 798 796 795 794
780 783 781 781 786 789 790 791 790 792 798 800 798 799 801 801 802 805 806 807 809 810 811 813 815 816 816 817 818 818 819 820 821 821 822 822 823 823 823 823 823 823 824 825 825 827 828 829 829 829 829 829 829 828 828 828 827 827 827 826 826 825 824 823 822 821 820 818 818 817 816 815 814 812 811 810 808 805 803 800 798 796 795 795 793 792
Wind_Speed
8 7 8 9 10 12 13 14 15 17 19 15 12 12 13 12 11 15 15 12 17 14 13 14 14 15 14 15 13 9 10 10 10 9 9 9 13 14 14 12 11 10 10 12 14 14 10 9 18 23 24 22 19 18 17 17 16 15 16 17 17 14 12 13 15 15 14 13 12 10 9 8 7 8 7 6 7 7 7 7 8 8 8 8 7 6
8 8 9 11 13 14 14 14 15 17 17 14 13 13 11 12 11 14 14 12 15 9 10 14 14 14 13 14 12 12 15 13 11 9 10 11 11 12 14 16 13 10 10 12 9 7 6 11 19 23 24 22 18 17 18 18 17 16 15 15 15 15 13 13 14 14 12 11 11 10 9 8 7 7 7 6 6 6 6 7 8 8 8 8 8 7
9 9 12 14 13 13 14 12 13 15 14 11 9 12 10 8 10 12 14 13 12 7 8 13 13 12 12 14 13 13 14 13 12 11 11 11 11 11 13 16 13 12 12 9 8 3 11 14 20 22 23 20 18 18 19 19 20 19 17 16 16 15 13 14 15 13 11 11 11 9 7 6 7 8 8 8 7 6 7 7 7 7 7 8 8 7
7 10 15 15 13 14 13 7 7 10 9 8 8 8 9 7 9 7 6 7 8 4 6 8 9 9 11 13 12 12 11 12 13 13 13 11 10 10 11 16 13 12 11 10 5 9 13 13 19 20 18 18 20 19 19 20 20 19 19 18 17 14 13 15 15 12 12 13 11 9 7 6 9 11 11 9 7 7 7 6 6 6 6 7 6 7
10 11 13 15 16 15 10 5 6 6 5 8 10 10 9 10 11 7 7 7 7 6 5 6 8 6 10 13 10 10 13 12 13 13 13 11 11 7 12 16 12 10 11 7 10 11 8 12 17 18 15 18 20 19 18 18 17 18 20 19 17 15 16 17 14 12 14 14 10 10 8 8 11 11 8 7 7 5 5 6 5 5 5 6 6 6
12 9 8 14 15 10 8 8 10 8 6 8 12 14 15 15 14 10 8 7 4 5 7 6 8 6 9 11 9 10 12 10 10 11 12 11 11 9 14 14 12 13 11 9 13 8 7 11 17 17 15 18 19 19 19 19 20 19 18 18 18 19 20 18 15 15 16 14 12 12 8 8 8 6 5 5 5 4 5 6 5 5 5 5 6 7
10 9 7 10 7 7 9 10 11 11 8 8 10 14 18 19 18 15 6 7 4 5 6 8 8 6 6 11 13 13 11 11 10 11 11 12 11 10 13 12 13 11 10 9 9 7 9 10 15 13 12 19 20 21 22 23 24 21 19 19 20 21 19 16 15 16 16 15 14 11 5 4 4 4 5 4 4 4 6 7 5 5 5 4 5 6
8 10 8 8 7 7 9 9 10 13 9 8 10 13 17 18 17 16 10 6 6 6 6 9 9 7 6 10 14 15 13 13 13 12 10 11 8 11 10 11 14 9 8 7 7 6 7 8 16 11 8 16 23 25 23 22 24 23 23 23 21 19 17 15 15 16 15 13 13 9 4 4 6 6 7 5 4 5 6 6 5 5 5 5 5 5
9 10 9 9 10 8 9 10 11 13 10 10 13 13 13 15 16 14 9 6 6 5 5 8 9 7 6 7 10 13 14 13 14 13 12 12 6 13 11 9 12 9 8 8 6 3 8 14 18 16 13 15 21 25 22 20 23 25 24 23 22 20 17 16 15 15 13 10 11 9 7 7 6 8 8 5 5 6 6 6 5 5 6 5 5 5
7 10 10 10 9 8 10 12 13 13 11 11 14 14 9 11 13 11 8 7 6 5 6 7 7 6 6 6 6 9 12 13 12 11 11 12 9 16 14 12 12 9 8 8 2 8 16 20 19 18 17 15 16 21 23 24 26 26 25 25 25 21 19 18 15 15 15 12 13 11 9 7 10 9 8 7 7 7 6 5 5 6 6 5 5 6
5 4 8 9 8 10 12 12 14 15 13 12 12 10 9 8 9 9 7 7 6 5 8 10 9 8 8 7 7 7 9 10 9 10 12 12 11 15 14 13 14 11 9 6 8 13 18 21 23 19 13 13 18 21 23 27 28 28 27 28 27 23 21 20 18 18 17 16 16 12 9 10 12 10 9 9 8 8 7 6 6 6 5 5 5 5
10 4 4 6 9 12 11 10 10 11 11 11 8 6 7 6 6 7 6 6 6 5 8 12 13 11 8 5 4 5 7 10 9 8 9 10 12 11 10 12 12 10 7 9 13 13 13 17 21 21 16 18 22 22 22 25 28 29 29 29 28 26 25 24 24 22 20 19 17 13 12 13 12 10 10 9 9 8 7 7 6 6 6 6 6 5
11 9 8 8 11 13 10 7 6 6 8 9 7 6 7 5 6 6 6 6 6 6 9 11 11 10 6 1 1 1 1 4 7 5 6 11 13 11 10 11 11 8 6 11 13 11 11 12 14 18 22 25 25 25 26 30 31 31 31 32 32 31 30 28 28 25 22 21 18 14 15 15 13 12 11 10 9 8 7 7 7 7 7 6 6 6
8 9 11 11 9 11 10 7 6 7 8 9 7 7 6 5 6 6 6 6 6 7 9 7 5 4 2 3 2 5 5 5 3 7 7 10 13 12 11 11 10 9 8 10 11 10 11 12 14 15 17 22 25 26 29 32 33 33 32 33 35 36 34 32 31 28 25 23 20 18 17 17 15 13 12 10 9 8 8 7 7 7 8 8 8 7
8 8 10 11 8 10 12 11 9 6 8 10 9 8 7 5 5 5 5 5 4 5 6 5 3 2 2 2 3 7 8 8 7 9 9 10 11 11 11 10 9 10 10 7 8 9 10 14 17 15 13 16 20 22 24 25 26 27 28 32 37 38 35 34 34 31 28 25 22 20 19 19 17 14 12 11 10 9 8 8 8 8 8 9 9 9
10 8 9 13 10 12 14 13 12 9 6 7 8 9 6 5 5 3 3 2 1 2 3 4 2 2 4 4 1 5 6 7 7 7 9 10 9 9 10 9 10 12 10 5 6 8 7 10 15 16 16 16 16 17 20 23 23 24 26 30 35 35 32 32 32 30 28 25 23 20 19 18 17 16 14 12 11 10 9 9 9 9 9 10 10 10
8 7 8 14 14 13 14 12 12 10 5 2 6 9 7 8 7 3 3 3 2 3 3 3 2 4 5 5 4 5 4 5 6 6 8 9 8 6 7 10 13 13 9 5 8 8 1 4 13 16 17 19 18 14 14 17 20 22 24 26 29 29 26 28 28 27 25 24 23 21 19 18 17 17 15 13 12 11 10 10 9 9 10 11 11 11
4 6 4 8 13 14 12 12 13 12 7 4 5 4 4 8 6 3 3 2 2 6 5 5 5 4 4 5 7 8 7 6 7 11 11 9 7 7 9 13 14 13 12 8 9 8 4 6 12 14 13 16 18 16 13 13 14 15 17 20 23 23 22 23 24 23 23 22 22 22 20 18 18 18 16 14 13 12 11 10 10 10 11 11 11 11
2 4 6 10 12 13 11 10 11 12 12 9 3 2 2 4 4 3 3 2 3 5 4 7 9 6 2 2 9 11 8 7 11 12 10 7 6 6 9 13 14 14 13 9 10 9 7 8 12 14 13 13 13 15 16 14 12 13 14 16 18 19 19 19 20 21 21 20 20 22 21 19 19 18 16 15 15 14 13 11 11 11 11 12 11 11
1 3 4 8 10 7 9 7 7 7 11 10 5 3 4 3 2 3 2 3 5 4 3 7 7 3 4 4 4 9 11 10 8 8 7 6 5 4 7 9 11 12 12 11 12 12 9 10 12 14 15 14 13 16 18 15 14 15 18 19 20 19 19 19 18 20 21 19 18 21 21 19 18 18 17 17 16 15 14 12 12 12 12 12 11 11
4 2 2 4 9 7 6 7 7 7 7 7 6 7 6 4 4 4 3 4 5 4 4 5 3 3 5 6 4 12 15 10 7 7 6 3 2 4 7 6 3 8 11 11 12 13 11 12 15 16 16 16 16 17 17 14 13 15 18 20 20 20 20 20 19 20 21 18 18 20 20 19 18 18 17 17 16 15 14 13 13 12 12 11 11 11
4 4 3 4 6 7 6 5 8 10 9 8 7 7 7 6 5 4 4 4 4 4 4 2 1 3 3 4 5 9 11 12 12 10 8 7 4 4 7 6 5 6 9 11 12 12 12 15 18 18 17 17 18 18 18 16 15 15 16 18 19 18 18 18 19 21 21 19 18 20 20 19 18 17 17 17 17 15 15 14 14 13 12 11 11 10
1 3 4 5 6 9 10 7 7 10 12 13 9 6 8 8 5 5 4 3 4 4 2 2 2 3 3 2 5 7 9 11 11 10 11 12 9 8 10 9 6 5 8 11 11 11 11 14 17 18 19 18 17 18 18 17 16 16 16 17 17 16 16 17 18 20 20 20 19 21 21 19 18 17 17 18 17 16 16 15 14 13 12 11 10 10
1 2 4 4 4 8 9 9 12 13 9 9 8 5 7 7 6 6 4 1 3 3 2 3 3 3 3 3 6 7 9 11 10 8 9 11 10 9 12 11 6 5 9 11 10 10 11 14 16 17 19 18 16 16 15 13 14 14 14 15 16 16 15 15 16 17 18 19 19 20 20 18 17 17 17 19 18 16 16 16 14 14 12 10 10 11
1 3 4 4 3 5 6 4 7 10 9 7 7 8 9 8 6 3 2 1 2 4 4 4 1 3 3 5 7 6 7 9 10 9 7 7 9 10 11 10 6 7 11 11 10 10 11 11 10 12 15 15 13 13 12 12 13 13 13 12 13 14 12 11 13 13 13 16 19 19 18 17 17 17 16 18 17 15 15 15 13 13 11 10 10 11
2 2 4 5 5 5 5 2 1 4 6 7 10 11 11 13 10 2 4 1 3 4 5 3 1 3 5 9 10 7 7 8 8 8 6 4 6 8 9 8 6 8 11 11 11 10 8 9 8 7 9 11 10 9 8 9 10 12 14 13 13 15 15 14 15 12 10 12 16 18 19 18 17 17 16 16 15 13 12 12 11 12 12 11 11 11
2 2 4 6 5 3 2 2 1 3 5 8 12 13 12 13 13 6 2 2 2 2 2 3 2 7 7 10 10 7 8 9 7 6 6 5 4 3 6 8 9 10 10 10 11 9 8 10 7 3 5 7 6 6 8 9 9 10 14 14 13 14 15 15 15 14 13 13 14 16 16 15 15 16 17 16 16 15 14 12 12 12 12 11 11 11
2 3 6 7 7 6 6 5 2 2 5 10 13 13 14 16 15 9 6 4 2 3 2 1 3 9 8 9 10 8 7 7 5 4 4 3 1 2 5 11 13 12 11 11 12 11 10 12 9 6 7 9 6 4 7 10 11 12 12 11 11 11 10 12 12 13 14 14 13 12 12 12 12 14 16 17 17 17 17 16 15 13 11 10 10 10
4 5 6 7 9 9 8 7 4 4 5 8 12 13 12 14 16 13 8 6 6 3 4 6 8 11 10 10 11 9 7 6 7 7 3 1 4 5 8 13 14 14 14 13 13 13 12 12 10 7 9 11 10 8 8 9 10 12 11 9 9 9 8 9 9 9 10 10 10 11 11 12 12 12 14 15 15 16 17 17 15 13 12 10 10 9
4 3 3 6 8 8 8 7 6 6 6 7 8 9 11 11 12 13 13 11 6 4 10 13 13 12 10 10 11 9 8 8 8 8 6 5 5 5 10 15 15 15 15 14 14 14 13 12 10 10 10 11 11 11 10 9 8 10 11 10 9 9 8 8 6 6 8 10 10 11 11 11 10 9 11 12 12 13 14 13 13 13 11 9 10 9
3 1 1 3 5 6 6 5 5 5 6 8 10 7 5 9 10 10 11 13 8 6 13 15 14 11 8 10 12 11 11 13 12 12 11 9 9 9 11 16 15 15 15 15 15 14 14 14 13 13 13 11 11 11 10 9 9 10 10 9 10 10 9 8 7 6 9 11 11 10 9 10 10 9 10 10 10 11 11 10 10 11 10 9 11 13
5 1 2 4 5 4 5 4 3 3 4 6 9 11 5 4 8 7 8 7 4 4 10 11 9 7 7 10 13 13 14 15 16 14 12 11 12 12 14 15 15 16 16 16 17 17 17 17 17 19 20 19 15 12 11 11 11 12 12 10 10 11 10 8 7 7 9 10 9 8 8 9 9 9 9 9 9 10 10 10 10 10 9 10 12 15
5 3 1 5 5 4 5 5 4 3 2 3 4 7 7 4 2 4 7 8 4 1 3 4 7 8 9 11 12 13 15 15 15 13 12 12 13 14 15 15 15 16 16 16 17 17 17 18 19 22 24 26 26 24 23 23 18 14 15 14 10 10 10 9 8 7 8 8 7 6 7 7 8 9 8 7 7 7 7 9 9 10 10 10 11 14
3 3 2 3 3 2 1 3 4 4 3 1 4 6 3 5 6 7 7 8 7 5 4 7 10 10 10 12 12 12 13 12 12 11 11 11 11 12 13 14 15 15 15 15 15 15 16 18 19 22 23 25 27 29 31 33 29 21 16 14 13 11 10 9 9 9 8 8 7 6 7 7 7 7 6 6 6 6 6 8 8 9 10 10 10 11
2 1 1 3 2 1 2 2 4 4 1 1 5 6 6 8 10 11 9 7 7 9 10 12 12 12 12 13 12 12 12 11 11 11 11 10 10 10 11 12 12 13 13 13 13 13 15 17 19 21 23 24 26 29 30 31 33 30 24 19 15 11 10 11 12 12 13 11 9 9 8 8 7 6 5 4 4 4 5 7 8 9 10 9 9 9
3 1 2 2 1 1 3 4 3 2 3 2 3 5 7 8 9 8 7 5 5 7 9 12 13 14 15 13 11 11 11 11 11 10 9 10 10 10 10 10 10 11 11 11 12 12 14 17 19 18 19 23 25 27 28 27 28 29 29 29 27 19 14 15 15 14 16 16 14 13 11 9 8 6 5 4 3 1 1 4 6 7 9 9 9 9
5 2 0 1 1 2 2 3 2 3 4 3 4 4 4 4 2 2 3 5 6 8 10 13 14 14 14 12 11 10 10 9 9 7 7 8 9 9 10 10 10 11 11 10 10 11 13 15 16 15 17 21 22 22 23 24 23 24 24 27 29 26 21 20 19 18 17 17 16 15 14 13 12 11 9 8 6 5 5 2 1 3 6 8 9 10
5 5 1 1 1 1 1 2 1 1 1 2 6 7 6 5 6 3 3 6 7 10 11 12 13 12 12 12 10 9 8 8 6 5 6 9 9 9 10 11 11 12 12 10 9 9 9 9 10 10 13 16 18 17 17 17 17 19 20 20 22 23 21 19 18 18 17 16 16 15 15 14 13 13 12 11 11 11 10 7 5 4 4 6 7 9
3 7 4 4 2 3 2 1 2 0 0 2 6 8 8 9 9 4 2 4 6 11 12 12 13 12 11 11 10 8 6 6 5 5 7 9 9 8 9 10 11 12 12 11 9 8 7 5 4 6 9 10 12 12 12 11 12 14 15 16 16 16 15 14 13 15 15 15 15 15 15 14 12 11 11 11 12 12 12 10 9 9 9 8 8 9
0 2 3 5 3 3 3 2 0 2 2 3 5 6 8 9 9 5 3 3 5 10 11 11 12 12 12 11 8 5 5 6 7 8 9 10 10 9 9 9 11 11 11 10 7 6 6 6 6 6 7 8 8 8 8 9 10 10 11 11 11 12 13 12 12 13 13 14 14 14 14 14 11 10 10 10 11 11 12 12 11 12 12 11 9 10
2 3 3 4 3 3 2 0 1 3 3 6 6 5 5 6 4 0 2 2 4 8 11 11 9 8 8 8 4 3 6 9 10 11 11 11 10 10 10 10 10 10 11 10 8 6 5 6 7 7 7 7 8 8 8 8 8 8 8 8 9 10 12 13 13 13 13 14 14 14 14 13 12 12 11 11 12 12 13 13 13 14 15 13 11 12
4 4 4 3 3 3 1 2 3 3 1 6 5 4 5 4 1 2 0 2 6 10 13 14 13 11 10 9 8 8 10 12 12 11 11 10 9 9 10 10 9 10 9 9 8 8 5 5 7 7 7 7 7 7 8 8 7 7 7 8 9 10 12 13 13 13 14 14 14 14 14 14 14 14 15 14 14 15 15 14 14 14 15 15 14 15
4 4 2 3 4 4 1 2 3 3 2 7 5 3 5 4 3 2 2 5 9 10 9 11 12 12 12 11 10 10 11 12 11 10 9 9 8 8 9 9 8 8 7 7 9 9 7 6 7 7 7 7 8 8 9 8 8 8 8 8 8 10 10 11 12 12 13 14 15 15 15 15 16 16 16 16 16 17 17 17 16 16 16 17 18 17
5 5 2 4 4 4 2 4 3 3 4 6 4 4 5 6 6 5 6 8 9 9 8 8 9 10 10 11 11 10 10 10 10 9 8 8 7 7 8 8 7 7 7 7 9 10 8 7 7 7 7 8 9 8 8 8 7 7 8 7 8 9 10 11 11 12 13 14 15 16 16 17 17 17 17 17 18 19 20 19 19 19 19 19 19 19
6 5 4 5 5 5 5 6 5 5 5 7 8 8 8 9 10 10 10 9 8 8 8 8 8 8 8 9 9 9 8 9 9 8 8 7 6 6 7 7 6 6 6 7 8 9 8 7 7 7 7 8 8 8 8 8 7 8 8 9 9 11 12 12 13 13 14 14 14 15 16 16 17 18 18 18 18 19 20 20 19 19 19 19 19 20
6 4 3 5 7 7 8 7 7 7 8 8 10 11 11 11 10 11 11 10 8 8 8 7 7 6 5 6 7 7 6 7 7 7 7 7 7 7 7 7 7 6 6 7 7 6 5 5 6 7 7 7 8 8 9 9 9 10 11 11 12 12 13 13 14 15 15 15 15 16 16 17 17 17 17 18 19 19 20 20 20 20 20 20 20 20
5 4 3 4 4 2 5 7 7 8 7 7 8 10 11 11 10 10 10 9 9 9 9 8 7 6 5 6 7 6 6 6 6 6 6 5 5 6 7 7 6 6 6 7 5 3 4 6 7 7 7 7 7 8 8 9 9 10 11 12 13 13 14 14 14 15 16 16 16 17 18 18 18 18 18 18 19 19 19 20 20 20 21 20 20 21
3 5 3 5 3 2 6 9 8 8 7 6 5 6 8 9 10 10 9 9 9 9 9 8 7 6 5 5 6 6 6 6 5 4 5 5 5 6 6 5 5 5 6 6 4 4 5 7 7 6 5 6 6 7 7 8 9 10 12 13 13 14 14 14 14 15 16 16 16 17 17 18 19 19 19 18 18 18 19 19 20 20 21 20 18 17
4 5 3 5 6 5 7 9 8 8 8 7 7 7 6 7 8 9 9 10 10 9 9 8 7 6 5 5 5 6 6 6 5 4 4 5 5 5 4 4 4 5 5 5 5 6 6 6 5 5 5 5 5 6 7 9 10 11 12 13 14 14 14 14 14 14 15 15 15 15 15 16 17 18 19 19 19 20 20 20 20 20 22 24 24 21
4 5 5 3 3 3 5 7 6 5 5 6 8 9 8 7 8 8 8 8 9 8 7 7 7 7 7 5 4 4 5 6 6 5 4 5 5 4 3 3 2 4 5 5 5 6 6 5 4 4 5 5 5 6 8 10 10 11 12 13 13 13 13 12 12 12 12 12 13 13 14 15 16 17 18 19 21 22 23 24 24 23 23 25 27 27
6 6 6 3 3 5 6 4 2 3 6 7 7 8 8 7 7 8 7 7 7 6 5 6 7 6 7 7 5 5 5 5 5 5 5 4 3 3 2 2 2 3 3 3 4 5 5 4 4 4 4 5 6 8 9 9 10 12 13 13 13 13 12 11 11 11 12 12 12 14 15 16 16 17 18 19 20 22 23 24 26 26 25 25 24 24
Wind_Direction
204 210 218 221 225 223 222 230 239 239 243 263 286 269 229 225 239 230 239 210 175 188 202 210 221 210 227 241 219 172 165 223 223 193 230 203 152 155 158 153 166 172 169 177 174 156 154 150 136 146 165 172 167 159 155 148 141 140 137 130 127 127 125 119 116 115 116 118 120 123 123 122 121 120 122 117 113 116 114 115 115 114 116 115 118 122
208 222 225 224 230 233 227 225 239 252 258 270 289 288 246 216 236 234 233 209 171 185 204 199 223 220 214 232 224 187 178 207 221 203 226 220 191 179 162 160 169 164 168 171 148 129 180 169 140 148 165 162 151 152 155 144 137 140 137 126 122 122 119 113 112 110 108 116 123 122 122 128 128 130 137 122 108 111 107 104 106 109 114 115 115 115
212 228 234 231 231 239 240 226 231 246 259 271 271 280 270 217 225 233 229 217 171 172 218 194 209 229 224 228 227 211 187 186 201 206 225 223 212 207 170 159 166 167 166 142 101 141 220 184 138 148 166 150 134 145 152 145 138 139 137 128 121 121 122 120 119 114 112 122 125 115 117 133 131 124 122 117 114 115 112 109 107 109 111 115 119 116
209 224 228 233 233 231 237 241 251 248 244 263 260 258 277 253 233 230 205 189 140 146 247 225 221 226 231 232 220 226 219 184 180 203 226 222 217 220 167 155 166 167 143 110 137 206 209 175 140 148 159 133 128 143 149 146 140 136 133 125 120 122 125 126 124 120 121 126 118 98 94 109 112 107 103 108 115 114 117 114 105 105 104 108 111 107
225 225 215 222 229 223 221 231 254 262 240 243 251 248 264 266 249 221 160 154 140 155 212 252 259 237 231 232 205 227 240 196 176 201 221 220 216 192 141 152 150 123 108 125 200 209 187 165 144 144 143 124 133 144 142 136 126 126 126 122 124 123 125 128 129 129 129 124 103 81 80 89 97 101 104 115 119 120 125 117 106 104 103 105 104 97
234 238 221 221 219 204 209 227 224 236 253 241 238 243 257 270 269 247 183 168 193 191 180 206 243 241 233 237 219 227 230 190 180 209 216 221 210 145 125 141 117 105 129 183 208 189 170 163 134 133 134 125 134 136 131 127 121 125 128 127 129 125 126 131 130 131 130 122 97 76 70 79 91 109 131 133 129 128 125 118 113 109 106 109 105 99
241 241 239 227 195 173 212 232 224 222 237 248 230 226 245 260 272 273 228 167 209 230 194 199 231 244 225 229 228 226 216 189 199 215 211 223 209 141 127 133 109 116 156 203 220 167 170 161 118 117 120 122 132 127 125 131 132 139 138 131 129 127 130 135 135 136 133 122 102 84 79 103 140 167 147 138 134 118 111 112 113 112 113 113 108 108
237 228 220 226 207 199 224 229 222 218 221 247 238 215 225 241 256 267 257 209 216 233 211 201 220 245 236 224 216 214 214 199 202 207 203 226 205 127 121 121 115 137 170 205 226 173 167 129 110 120 108 115 128 125 125 132 136 141 137 129 128 130 136 140 141 139 129 114 103 110 168 206 204 174 137 134 131 115 117 125 134 135 130 122 116 117
216 215 194 215 225 220 232 233 222 218 221 237 248 243 224 222 236 249 251 238 227 231 228 211 216 235 248 239 211 207 215 204 202 204 201 221 189 119 120 124 126 154 189 209 225 134 89 80 105 141 141 122 125 125 126 130 134 137 135 133 133 137 145 145 141 134 124 119 126 155 216 225 179 150 143 148 138 135 142 147 150 139 126 115 108 107
211 217 204 206 222 230 229 231 224 216 227 235 246 265 257 217 225 236 240 238 227 228 238 224 215 234 249 235 201 206 217 205 201 206 203 209 172 129 138 152 145 158 194 212 199 83 83 85 104 133 138 125 115 119 125 130 137 139 142 146 142 141 146 145 145 139 137 149 162 183 221 194 150 146 160 162 152 155 161 157 143 125 123 119 106 99
229 231 233 214 213 232 228 228 227 214 219 232 233 252 257 229 223 224 228 239 235 232 240 229 210 221 252 233 197 213 216 196 197 209 205 193 149 130 144 152 147 157 182 167 99 88 95 105 111 115 131 133 120 126 133 136 142 144 149 155 148 145 148 151 157 154 154 170 178 188 201 173 153 159 169 164 164 168 167 160 148 141 138 125 108 97
233 224 247 239 226 234 235 235 234 214 211 225 226 235 241 229 221 223 221 227 235 231 238 238 220 216 241 240 205 213 196 187 203 210 189 154 129 137 151 140 137 151 155 109 97 102 106 109 111 119 152 157 139 141 146 145 149 149 153 157 151 151 157 161 167 168 169 176 180 184 182 168 162 171 175 171 174 174 170 169 160 153 144 126 119 111
230 222 213 224 234 237 242 235 220 215 222 224 215 221 236 224 210 222 220 215 228 229 229 238 237 228 228 221 139 126 159 210 202 172 130 128 131 147 152 133 131 144 127 101 106 120 122 119 126 142 161 161 153 156 155 155 159 159 161 161 158 161 165 167 172 175 175 175 177 178 175 171 171 177 180 181 184 179 176 178 167 157 152 143 136 126
218 230 220 213 220 227 237 236 204 197 215 227 227 219 221 222 218 222 221 218 226 229 225 224 243 246 178 87 115 127 64 23 110 121 119 137 137 137 139 134 134 133 112 105 118 129 130 140 154 161 164 161 161 164 162 160 162 164 167 166 164 166 169 171 176 177 176 175 173 172 174 175 174 178 182 184 187 184 181 181 173 169 165 153 142 137
214 225 216 208 203 196 213 237 238 216 202 210 226 235 226 215 222 229 227 236 241 236 228 203 209 249 153 99 72 105 90 58 72 86 96 124 134 131 135 137 125 109 98 106 125 125 130 142 149 153 158 160 161 162 161 162 162 163 170 171 169 170 173 175 177 177 176 175 172 171 175 174 173 177 182 185 187 186 184 182 179 175 165 155 149 146
231 231 199 201 210 195 201 228 248 249 227 204 212 230 234 214 212 226 230 242 312 297 262 215 201 74 130 171 123 100 104 95 93 91 99 116 127 133 142 131 102 95 107 125 116 108 117 128 133 142 148 150 156 159 158 160 162 165 171 173 172 173 176 177 176 174 173 172 171 171 171 171 172 174 178 182 184 185 183 180 182 175 163 159 154 148
236 249 197 189 204 207 204 215 232 241 241 227 222 221 222 216 207 204 220 192 167 247 246 192 136 91 134 189 177 150 145 123 117 106 97 98 95 96 120 113 96 103 124 124 107 108 123 135 130 136 140 144 154 163 160 159 164 170 173 172 170 171 172 174 173 171 170 169 169 168 168 170 172 171 176 180 178 181 183 181 181 171 162 161 156 150
243 267 260 213 210 207 207 214 223 229 224 221 234 249 255 228 203 180 221 203 215 250 232 170 163 167 200 199 159 164 180 155 104 77 75 87 87 65 76 94 100 114 124 119 120 134 202 184 139 129 132 142 152 159 162 163 167 172 174 170 166 165 165 168 168 166 167 167 166 166 169 171 172 173 176 178 176 178 179 179 178 168 163 162 158 154
230 265 287 277 244 201 193 221 226 221 225 230 236 356 310 234 208 208 218 190 209 242 245 210 197 191 236 196 161 170 165 115 82 74 78 83 83 67 81 106 117 120 123 133 145 154 175 167 144 138 140 143 152 155 152 157 164 166 170 168 164 165 163 163 164 165 166 165 165 169 171 171 172 175 175 174 175 176 176 179 177 169 168 164 162 160
159 259 253 279 277 213 184 218 234 219 225 235 244 227 199 181 218 251 258 244 228 223 233 234 216 156 8 339 152 134 110 92 77 81 87 66 53 57 76 100 117 123 134 149 152 151 150 144 142 144 142 141 151 151 142 150 166 164 163 163 163 167 166 163 163 166 168 168 169 172 173 173 172 173 175 175 174 174 175 177 175 171 171 167 165 164
172 197 223 281 293 267 211 203 219 230 229 227 232 235 225 197 194 208 227 250 254 248 235 239 223 79 14 350 72 104 107 119 116 97 99 88 56 62 71 76 121 145 151 153 146 143 143 141 139 137 132 128 133 138 138 149 165 163 163 163 160 162 164 163 165 168 171 174 175 176 175 174 174 173 175 175 173 174 175 174 173 172 172 171 170 168
175 173 205 258 268 264 252 217 217 235 242 234 220 220 232 226 204 212 227 232 246 261 265 262 147 100 33 11 78 103 116 132 136 136 143 144 158 160 134 145 186 169 144 137 135 136 139 141 139 136 133 126 126 139 147 152 157 162 165 160 156 157 160 163 166 170 174 176 178 181 178 176 176 175 177 176 173 175 174 172 171 171 172 172 173 174
50 181 198 225 241 259 276 299 288 264 253 248 241 231 236 231 213 215 223 230 247 249 262 267 206 113 80 101 111 107 110 117 125 137 142 144 160 172 151 151 182 171 137 133 133 131 133 137 139 138 135 129 131 142 148 152 156 161 164 159 156 161 166 168 169 172 176 176 177 180 179 178 178 177 177 176 175 176 175 173 171 171 172 173 175 180
70 241 215 219 243 258 273 311 309 293 281 262 253 253 255 248 230 228 228 213 232 226 223 246 218 119 108 127 114 112 121 121 120 123 128 133 137 140 136 140 166 155 131 132 132 129 132 136 139 139 133 130 135 138 140 147 150 152 159 162 163 167 170 170 168 171 174 174 175 177 175 176 178 178 178 177 178 178 176 175 172 170 172 174 179 185
206 246 228 236 257 237 243 304 314 312 327 315 283 268 260 254 240 246 336 345 255 252 250 248 179 105 125 123 110 112 122 124 123 118 110 113 117 121 124 130 141 124 116 121 123 121 126 127 127 129 125 126 132 135 140 151 153 151 151 156 164 164 162 161 164 171 175 172 171 171 171 174 177 178 178 176 177 177 173 176 176 173 176 178 179 187
212 223 206 235 254 241 236 239 313 339 341 325 312 300 280 264 251 223 58 337 268 279 274 272 83 118 138 127 123 119 99 83 83 93 88 75 93 107 113 118 119 111 109 112 110 105 104 100 90 93 108 116 122 126 136 148 154 148 141 149 162 160 161 166 166 172 184 177 168 166 168 171 173 175 172 170 172 167 165 179 185 179 183 185 183 188
195 184 212 232 240 234 215 200 185 3 348 336 332 332 328 309 285 258 180 201 214 203 280 315 142 150 138 120 117 106 86 69 45 53 69 52 36 65 112 113 102 102 107 108 107 108 107 105 102 92 95 98 103 125 139 144 146 140 140 152 160 155 158 163 164 175 185 179 170 169 167 163 165 170 172 174 178 169 163 179 192 188 189 190 186 189
172 208 212 224 231 213 181 174 194 311 332 345 344 342 351 351 336 303 251 240 254 210 212 317 132 126 107 101 110 110 107 101 85 68 65 79 162 186 115 105 101 102 103 100 101 106 105 108 115 121 113 109 108 118 125 127 134 136 134 138 139 139 150 155 163 180 182 173 170 170 166 163 168 176 178 181 185 178 170 175 184 189 193 196 195 193
226 224 193 206 234 232 207 192 212 253 291 335 340 341 356 11 10 353 318 295 291 254 146 115 112 107 98 95 100 107 119 119 115 108 87 236 184 150 110 100 96 93 89 84 83 81 82 91 99 95 92 96 91 80 82 91 109 120 118 114 119 127 143 153 163 171 160 151 148 144 148 160 170 178 181 182 185 184 180 179 185 194 195 194 198 196
250 234 188 208 225 230 219 206 221 248 259 269 290 328 3 21 26 17 1 353 360 99 122 119 108 99 101 97 85 82 91 88 79 77 61 22 19 73 95 94 89 86 82 78 74 71 70 76 84 87 85 85 81 75 75 79 87 99 104 108 114 118 123 128 133 132 118 110 109 113 126 142 149 160 169 172 178 184 183 183 192 204 207 199 200 204
299 348 356 251 231 221 207 197 214 239 248 240 241 263 344 18 25 31 19 358 357 95 118 117 107 98 96 88 72 60 67 74 66 59 59 48 26 32 66 75 74 74 71 66 62 58 55 52 49 55 65 80 98 104 101 95 85 78 80 87 89 83 83 96 106 104 98 100 105 107 118 138 150 159 165 168 176 182 182 181 189 202 215 221 218 220
291 238 175 228 243 223 191 189 196 204 239 243 238 243 251 26 29 40 44 4 323 136 121 113 111 112 99 79 65 53 55 67 71 65 60 59 49 46 56 58 55 55 52 47 44 40 38 37 32 28 26 28 43 64 73 73 71 64 59 68 88 90 85 84 81 78 82 89 100 108 114 128 140 147 157 168 178 183 184 184 184 188 199 218 226 228
306 316 232 226 236 216 178 176 181 186 221 234 258 264 242 200 146 71 51 30 15 148 151 118 113 113 99 83 70 60 56 60 68 70 67 66 62 58 59 60 58 57 52 46 44 40 34 33 31 27 23 20 21 25 31 33 33 38 45 46 58 87 101 97 87 89 96 94 94 106 115 114 119 129 139 151 162 173 181 182 181 178 184 204 220 227
316 0 341 260 247 285 28 126 175 214 218 218 330 326 262 182 140 97 65 39 45 61 69 94 109 112 97 89 84 76 67 61 61 65 66 69 72 65 60 60 60 59 56 48 44 41 35 29 26 25 25 23 20 22 26 24 19 24 42 45 43 58 74 74 68 66 74 85 87 90 101 102 98 106 116 128 142 160 176 177 178 178 183 198 212 219
205 179 270 275 256 20 38 129 191 216 195 9 340 3 61 105 107 94 74 49 64 92 104 107 110 106 94 92 94 91 86 79 68 58 52 57 70 74 67 61 57 56 56 51 44 40 37 32 28 24 22 22 23 24 23 20 17 21 28 30 29 42 61 61 56 46 37 40 45 44 54 67 68 73 87 102 120 146 175 177 182 190 195 205 220 226
163 201 247 262 278 149 181 197 198 151 103 67 25 39 72 100 110 97 80 64 58 78 105 111 105 97 96 100 102 102 102 95 79 63 54 54 61 70 70 64 58 57 56 54 51 46 42 39 35 27 22 25 28 26 22 19 18 20 23 22 19 22 41 52 46 37 28 25 24 22 24 33 41 45 43 47 68 77 233 175 177 192 199 208 223 230
123 110 246 211 329 302 233 208 170 132 130 101 65 58 70 81 55 32 111 121 95 79 91 103 103 102 108 112 114 118 114 95 75 68 76 79 74 77 80 75 71 68 63 63 64 57 50 47 44 36 29 30 30 29 26 20 17 18 21 21 16 14 24 34 26 19 21 17 10 9 11 14 17 17 14 8 1 354 350 349 198 204 203 205 214 215
138 124 135 197 170 316 288 261 250 169 157 60 41 27 21 20 360 358 109 120 113 108 107 107 110 115 121 125 131 133 113 86 77 86 99 100 95 93 93 87 82 78 73 73 76 69 58 51 48 46 42 37 31 29 28 22 16 17 16 15 11 8 16 24 13 2 6 4 358 359 3 4 5 5 2 354 351 353 353 345 330 308 269 240 233 223
173 134 160 218 192 140 151 243 279 286 292 26 32 15 0 355 345 330 154 132 122 123 120 119 124 130 135 142 150 150 123 98 106 121 122 124 126 123 120 118 116 114 106 96 91 90 86 79 68 59 51 43 33 26 23 19 16 17 13 8 4 359 5 16 5 350 348 349 347 347 348 348 352 355 351 343 342 344 342 336 326 312 299 278 261 250
262 129 208 239 232 185 187 217 235 110 81 13 13 14 360 345 328 296 189 140 130 135 132 130 135 143 151 158 164 160 133 119 123 127 123 121 121 115 112 119 126 124 111 94 80 84 98 98 85 70 53 43 37 27 22 20 15 14 9 0 353 351 356 1 352 340 336 335 335 333 331 332 335 338 335 329 328 329 326 323 315 307 304 294 273 264
343 343 293 258 246 243 226 201 59 99 61 349 351 10 348 326 318 269 137 121 119 121 113 102 101 113 132 143 139 102 100 107 115 121 116 107 104 100 92 91 94 91 89 87 72 54 67 85 77 67 55 43 36 27 24 23 15 8 4 356 351 354 356 352 343 337 333 328 324 321 320 321 321 321 318 314 312 309 306 306 303 300 302 300 283 269
348 345 330 328 320 299 209 125 93 96 337 309 328 15 347 322 131 122 126 86 87 91 93 88 82 79 82 85 80 84 98 107 112 116 114 105 98 95 90 85 83 77 78 91 81 50 43 77 75 61 54 46 38 31 24 19 15 12 7 360 357 356 351 344 338 334 330 324 320 318 317 315 311 309 307 303 298 295 292 292 291 291 293 294 288 278
14 341 349 30 356 323 6 104 104 94 354 314 320 18 15 24 102 117 78 70 70 75 87 89 87 90 92 85 78 82 95 103 103 99 97 92 85 82 81 75 75 73 64 68 63 40 25 48 56 47 45 42 34 29 23 17 17 17 7 355 350 347 341 336 332 328 324 322 321 319 315 311 307 305 302 298 295 292 288 284 281 280 280 281 282 279
21 345 359 52 6 327 22 66 81 87 40 10 31 73 58 46 47 51 61 65 62 65 73 70 69 81 93 97 95 93 95 98 99 99 98 96 91 87 84 74 65 64 58 53 48 30 19 33 39 33 36 34 24 22 23 18 14 7 355 344 341 338 334 330 327 325 323 322 321 318 316 313 311 309 306 302 299 295 290 284 279 274 269 268 270 272
37 36 53 62 43 38 74 95 95 88 73 63 72 80 71 60 56 57 62 65 66 69 69 63 57 56 69 88 96 98 102 105 108 113 113 110 104 96 94 92 81 70 67 62 45 26 21 35 38 32 31 26 20 20 19 12 3 354 347 346 344 338 332 329 329 327 324 321 319 317 315 314 313 311 309 306 304 300 294 290 286 281 275 269 264 264
56 53 72 91 89 79 83 95 96 89 81 70 67 69 66 66 69 72 72 71 71 74 72 70 66 59 72 97 95 91 97 101 103 108 110 110 114 113 108 104 97 89 86 76 53 28 31 49 46 38 32 25 25 25 16 8 3 355 349 346 340 332 327 326 325 324 321 319 319 319 317 315 313 312 310 307 305 303 299 295 292 287 283 278 273 269
53 359 34 102 126 111 100 108 105 98 92 79 73 75 72 70 71 75 79 80 79 80 80 80 79 71 74 95 101 99 101 101 104 111 111 108 111 111 105 101 101 100 91 79 63 42 54 60 50 40 33 28 28 24 13 5 360 350 343 339 333 329 326 323 322 321 319 318 319 318 315 313 311 310 310 307 302 300 297 294 293 289 285 282 278 275
8 317 10 79 76 76 111 119 116 115 116 109 99 89 80 79 80 81 85 87 86 84 82 81 84 82 74 83 99 101 94 89 89 98 108 112 106 98 95 97 102 102 92 83 75 63 60 60 53 42 37 37 31 20 9 1 354 348 344 339 335 331 326 321 320 319 315 313 314 314 312 312 312 311 310 306 303 303 299 293 291 290 286 286 287 289
312 309 17 81 91 97 114 125 130 134 129 115 106 101 95 94 97 98 98 97 93 90 87 81 79 84 84 83 98 107 103 89 72 64 82 95 90 86 93 103 108 103 93 85 79 72 66 63 56 41 36 39 29 9 2 359 356 354 349 343 338 333 325 320 319 315 311 310 310 310 311 313 314 315 314 312 311 311 308 303 300 296 289 287 289 297
4 4 21 72 121 123 131 137 135 127 125 120 115 116 121 126 119 109 106 107 104 101 106 111 111 107 100 85 70 84 93 86 72 60 63 78 82 84 89 91 96 96 89 83 82 78 68 58 50 40 33 31 16 0 1 3 359 355 352 346 340 334 327 323 318 312 310 310 309 313 320 318 313 312 315 315 313 311 309 309 310 308 303 297 293 292
40 29 22 29 69 90 108 122 102 97 125 133 127 125 134 141 130 114 106 110 114 110 112 131 139 131 121 116 105 89 78 73 70 62 56 62 76 82 70 53 50 73 87 87 77 67 59 48 40 38 31 17 4 359 0 359 353 352 353 349 342 336 330 326 321 314 313 313 312 317 322 318 311 310 310 311 314 313 310 310 311 309 308 307 304 299